Lexington Weather

Lexington, Massachusetts, USA

44°F
4/22/2024 8:54am 
  • Lexington Conditions: Clear
  • Temperature: 43.7°F / 6.5°CWarmer 3.8°F than last hour.
  • Dew Point: 27.7°FDecreased 1.1°Fsince last hour.
  • Relative Humidity: 53%Decreased 11.0% since last hour.
  • Wind: Calm, 10-min avg: Calm, gust: None
  • Barometer: 29.96 in Steady
  • Visibility: 10 miles
  • Rain Today: 0.00 in
  •   

Regional Weather Roundup
for Boston, MA

        
000
ASUS41 KBOX 172310
RWRBOX

REGIONAL WEATHER ROUNDUP
NATIONAL WEATHER SERVICE BOSTON/NORTON MA
700 PM EDT WED APR 17 2024

NOTE:  "FAIR" INDICATES FEW OR NO CLOUDS BELOW 12,000 FEET WITH NO 
SIGNIFICANT WEATHER AND/OR OBSTRUCTIONS TO VISIBILITY.

MAZALL-180000-
EASTERN MASSACHUSETTS
  
CITY           SKY/WX    TMP DP  RH WIND       PRES   REMARKS
BOSTON         CLOUDY    49  38  65 SE13      30.13S                  
BEVERLY        CLEAR     44  36  73 SE12      30.13S                  
LAWRENCE       CLEAR     48  34  58 E8        30.14R                  
BEDFORD        CLEAR     49  36  61 E10       30.10S                  
NORWOOD        CLOUDY    54  36  50 S13       30.12S                  
MARSHFIELD     CLOUDY    46  37  71 SE8       30.14S                  
PLYMOUTH       CLOUDY    48  35  60 S5        30.13F                  
TAUNTON        MOCLDY    51  38  60 SE7       30.13F                  
NEW BEDFORD    CLOUDY    48  37  65 SE8       30.13F                  
$$

MAZALL-180000-
CAPE COD AND THE ISLANDS
  
CITY           SKY/WX    TMP DP  RH WIND       PRES   REMARKS
FALMOUTH       NOT AVBL                                               
HYANNIS        CLOUDY    44  35  70 SE8       30.14S                  
CHATHAM        CLOUDY    44  36  73 E6        30.16F                  
PROVINCETOWN   PTCLDY    46  36  68 SE7       30.16S                  
NANTUCKET      CLOUDY    44  37  76 E10       30.16S                  
MARTHAS VNYRD  CLOUDY    46  38  73 SE10      30.14F                  
$$
 
MAZALL-180000-
CENTRAL AND WESTERN MASSACHUSETTS
  
CITY           SKY/WX    TMP DP  RH WIND       PRES   REMARKS
WORCESTER      CLOUDY    52  32  46 S10       30.08R                  
FITCHBURG      MOCLDY    58  37  45 SE10      30.08S                  
ORANGE         PTCLDY    59  35  40 S7        30.06S                  
SPRINGFIELD    NOT AVBL                                               
WESTFIELD      CLOUDY    55  32  41 S14G22    30.07S                  
NORTH ADAMS    CLOUDY    63  37  38 CALM      30.02S                  
PITTSFIELD     LGT RAIN  54  39  57 S8        30.02F                  
$$
 
RIZALL-180000-
RHODE ISLAND
  
CITY           SKY/WX    TMP DP  RH WIND       PRES   REMARKS
PROVIDENCE     CLOUDY    47  37  68 S14       30.13F                  
NEWPORT        CLOUDY    45  37  73 SE8       30.12F                  
BLOCK ISLAND   CLOUDY    44  38  79 SE12      30.13F                  
SMITHFIELD     CLOUDY    47  33  58 VRB3      30.12S                  
WESTERLY       CLOUDY    46  39  76 SE7       30.13F                  
$$
 
CTZALL-180000-
CONNECTICUT
  
CITY           SKY/WX    TMP DP  RH WIND       PRES   REMARKS
BRADLEY INTL   CLOUDY    54  32  43 S12       30.09S                  
HARTFORD       LGT RAIN  50  37  61 S7        30.10S                  
PLAINVILLE     LGT RAIN  51  37  57 SE5       30.08S                  
BRIDGEPORT     LGT RAIN  48  43  82 E8        30.10S                  
DANBURY        LGT RAIN  49  42  77 S5        30.10R                  
GROTON         CLOUDY    47  40  76 SE9       30.11F                  
NEW HAVEN      CLOUDY    49  45  86 SE6       30.11S                  
CHESTER        LGT RAIN  46  41  81 SE7       30.11S                  
MERIDEN        LGT RAIN  50  38  63 S6        30.10S                  
WILLIMANTIC    CLOUDY    49  33  54 SE7       30.11F                  
OXFORD         LGT RAIN  45  41  86 S6        30.09S                  
$$

MEZ002-015-021-024-NHZ003-005-008-011-012-014-VTZ005-008-180000-
NORTHERN NEW ENGLAND
  
CITY           SKY/WX    TMP DP  RH WIND       PRES   REMARKS
PORTLAND ME    CLEAR     44  35  70 S8        30.14R                  
BANGOR ME      MOCLDY    51  26  37 N12       30.13R                  
CONCORD NH     CLEAR     52  36  54 E7G17     30.09R                  
MANCHESTER NH  MOCLDY    53  34  48 SE8       30.09R                  
NASHUA NH      CLEAR     53  35  50 SE15      30.11R                  
PORTSMOUTH NH  CLOUDY    45  34  66 SE12      30.14S                  
JAFFREY NH     CLEAR     57  36  45 SE8       30.06S                  
KEENE NH       MOCLDY    59  38  45 CALM      30.05S                  
BURLINGTON VT  CLOUDY    49  31  49 NW7       30.09S                  
MT. WASHINGTON NOT AVBL                                               
$$

NYZ052-076-180000-
EASTERN NEW YORK
  
CITY           SKY/WX    TMP DP  RH WIND       PRES   REMARKS
ALBANY         LGT RAIN  58  42  55 S12       30.03S                  
NEW YORK CITY  CLOUDY    51  43  74 E9        30.07R                  
$$
 
ANZALL-180000-
MARINE OBSERVATIONS
  
STATION/POSITION TIME  TEMP    WIND        PRES    VSBY  WAVE
                       AIR SEA DIR/SP/G                  HT/PER
                 (UTC) (F)     (DEG/KT/KT) (MB)    (MI)  (FT/S)
BOSTON BUOY      2250   45     130/ 12/ 14 1020.4S         3/ 3
BUZZARDS BAY     2200   44     130/ 11/ 12 1021.3R
NANTUCKET SOUND  2250   45 48  120/ 12/ 14 1020.4F         1/ 3
MASS BAY-STELLWA 2104   45 46  130/ 14/ 16 1020.7F  1 7/8  2/ 5
ISLE OF SHOALS   2200   43     150/ 16/ 17 1020.2R
S OF BLOCK IS    2226      45                N/A           3/ 8
$$

......................KEY.........................
  SKY/WX - SKY CONDITION/PRESENT WEATHER
  TMP    - TEMPERATURE IN FAHRENHEIT
  DWPT   - DEWPOINT IN FAHRENHEIT
  RH     - RELATIVE HUMIDITY IN PERCENT
  WIND   - DIRECTION AND SPEED IN MPH
  PRES   - MEAN SEA LEVEL PRESSURE IN INCHES OF HG
  WCI    - WIND CHILL INDEX
  VSB    - VISIBILITY IN MILES
  HX     - HEAT INDEX
  TC     - TEMPERATURE IN CELSIUS
  VRB    - VARIABLE WIND DIRECTION
  N/A    - NOT AVAILABLE
  
      

Other recent Regional Weather Roundups

Mon Apr 22, 8:10am EDT

Mon Apr 22, 7:10am EDT

Mon Apr 22, 6:10am EDT

Mon Apr 22, 5:10am EDT

Mon Apr 22, 4:10am EDT

Mon Apr 22, 3:10am EDT

Mon Apr 22, 2:10am EDT

Mon Apr 22, 1:10am EDT

Mon Apr 22, 12:10am EDT

Sun Apr 21, 11:10pm EDT

Sun Apr 21, 10:10pm EDT

Sun Apr 21, 9:10pm EDT

Sun Apr 21, 8:10pm EDT

Sun Apr 21, 7:10pm EDT

Sun Apr 21, 6:10pm EDT

Sun Apr 21, 5:10pm EDT

Sun Apr 21, 4:10pm EDT

Sun Apr 21, 3:10pm EDT

Sun Apr 21, 2:10pm EDT

Sun Apr 21, 1:10pm EDT

Sun Apr 21, 12:10pm EDT

Sun Apr 21, 11:10am EDT

Sun Apr 21, 10:10am EDT

Sun Apr 21, 9:10am EDT

Sun Apr 21, 8:10am EDT

Sun Apr 21, 7:10am EDT

Sun Apr 21, 6:10am EDT

Sun Apr 21, 5:10am EDT

Sun Apr 21, 4:10am EDT

Sun Apr 21, 3:10am EDT

Sun Apr 21, 2:10am EDT

Sun Apr 21, 1:10am EDT

Sun Apr 21, 12:10am EDT

Sat Apr 20, 11:10pm EDT

Sat Apr 20, 10:10pm EDT

Sat Apr 20, 9:10pm EDT

Sat Apr 20, 8:10pm EDT

Sat Apr 20, 7:10pm EDT

Sat Apr 20, 6:10pm EDT

Sat Apr 20, 5:10pm EDT

Sat Apr 20, 4:10pm EDT

Sat Apr 20, 3:10pm EDT

Sat Apr 20, 2:10pm EDT

Sat Apr 20, 1:10pm EDT

Sat Apr 20, 12:10pm EDT

Sat Apr 20, 11:10am EDT

Sat Apr 20, 10:10am EDT

Sat Apr 20, 9:10am EDT

Sat Apr 20, 8:10am EDT

Sat Apr 20, 7:10am EDT

Sat Apr 20, 6:10am EDT

Sat Apr 20, 5:10am EDT

Sat Apr 20, 4:10am EDT

Sat Apr 20, 3:10am EDT

Sat Apr 20, 2:10am EDT

Sat Apr 20, 1:10am EDT

Sat Apr 20, 12:10am EDT

Fri Apr 19, 11:10pm EDT

Fri Apr 19, 10:10pm EDT

Fri Apr 19, 9:10pm EDT

Fri Apr 19, 8:10pm EDT

Fri Apr 19, 7:10pm EDT

Fri Apr 19, 6:10pm EDT

Fri Apr 19, 5:10pm EDT

Fri Apr 19, 4:10pm EDT

Fri Apr 19, 3:10pm EDT

Fri Apr 19, 2:10pm EDT

Fri Apr 19, 1:10pm EDT

Fri Apr 19, 12:10pm EDT

Fri Apr 19, 11:10am EDT

Fri Apr 19, 10:10am EDT

Fri Apr 19, 9:10am EDT

Fri Apr 19, 8:10am EDT

Fri Apr 19, 7:10am EDT

Fri Apr 19, 6:10am EDT

Fri Apr 19, 5:10am EDT

Fri Apr 19, 4:10am EDT

Fri Apr 19, 3:10am EDT

Fri Apr 19, 2:10am EDT

Fri Apr 19, 1:10am EDT

Fri Apr 19, 12:10am EDT

Thu Apr 18, 11:10pm EDT

Thu Apr 18, 10:10pm EDT

Thu Apr 18, 9:10pm EDT

Thu Apr 18, 8:10pm EDT

Thu Apr 18, 7:10pm EDT

Thu Apr 18, 6:10pm EDT

Thu Apr 18, 5:10pm EDT

Thu Apr 18, 4:10pm EDT

Thu Apr 18, 3:10pm EDT

Thu Apr 18, 2:10pm EDT

Thu Apr 18, 1:10pm EDT

Thu Apr 18, 12:10pm EDT

Thu Apr 18, 11:10am EDT

Thu Apr 18, 10:10am EDT

Thu Apr 18, 9:10am EDT

Thu Apr 18, 8:10am EDT

Thu Apr 18, 7:10am EDT

Thu Apr 18, 6:10am EDT

Thu Apr 18, 5:10am EDT

Thu Apr 18, 4:10am EDT

Thu Apr 18, 3:10am EDT

Thu Apr 18, 2:10am EDT

Thu Apr 18, 1:10am EDT

Thu Apr 18, 12:10am EDT

Wed Apr 17, 11:10pm EDT

Wed Apr 17, 10:10pm EDT

Wed Apr 17, 9:10pm EDT

Wed Apr 17, 8:10pm EDT

Wed Apr 17, 6:10pm EDT

Wed Apr 17, 5:10pm EDT

Wed Apr 17, 4:10pm EDT

Wed Apr 17, 3:10pm EDT

Wed Apr 17, 2:10pm EDT

Wed Apr 17, 1:10pm EDT

Wed Apr 17, 12:10pm EDT

Wed Apr 17, 11:10am EDT

Wed Apr 17, 10:10am EDT

Wed Apr 17, 9:10am EDT

Wed Apr 17, 8:10am EDT

Wed Apr 17, 7:10am EDT

Wed Apr 17, 6:10am EDT

Wed Apr 17, 5:10am EDT

Wed Apr 17, 4:10am EDT

Wed Apr 17, 3:10am EDT

Wed Apr 17, 2:10am EDT

Wed Apr 17, 1:10am EDT

Wed Apr 17, 12:10am EDT

Tue Apr 16, 11:10pm EDT

Tue Apr 16, 10:10pm EDT

Tue Apr 16, 9:10pm EDT

Tue Apr 16, 8:10pm EDT

Tue Apr 16, 7:10pm EDT

Tue Apr 16, 6:10pm EDT

Tue Apr 16, 5:10pm EDT

Tue Apr 16, 4:10pm EDT

Tue Apr 16, 3:10pm EDT

Tue Apr 16, 2:10pm EDT

Tue Apr 16, 1:10pm EDT

Tue Apr 16, 12:10pm EDT

Tue Apr 16, 11:10am EDT

Tue Apr 16, 10:10am EDT

Tue Apr 16, 9:10am EDT

Tue Apr 16, 8:10am EDT

Tue Apr 16, 7:10am EDT

Tue Apr 16, 6:10am EDT

Tue Apr 16, 5:10am EDT

Tue Apr 16, 4:10am EDT

Tue Apr 16, 3:10am EDT

Tue Apr 16, 2:10am EDT

Tue Apr 16, 1:10am EDT

Tue Apr 16, 12:10am EDT

Mon Apr 15, 11:10pm EDT

Mon Apr 15, 10:10pm EDT

Mon Apr 15, 9:10pm EDT

Mon Apr 15, 8:10pm EDT

Mon Apr 15, 7:10pm EDT

Mon Apr 15, 6:10pm EDT

Mon Apr 15, 5:10pm EDT

Mon Apr 15, 4:10pm EDT

Mon Apr 15, 3:10pm EDT

Mon Apr 15, 2:10pm EDT

Mon Apr 15, 1:10pm EDT

Mon Apr 15, 12:10pm EDT

Mon Apr 15, 11:10am EDT

Mon Apr 15, 10:10am EDT

Mon Apr 15, 9:10am EDT